sat.trackr.live / text

‹ back to catalog

ONEWEB-0013

NORAD 45131 · 2020-008A

PAYLOAD ACTIVE UNKNOWN

§ Identity

Operator
Country
UK
Launch date
2020-02-06
Launch site
TYMSC
Launch vehicle
Mass (kg)
RCS (m²)

Purposes: comms

External: N2YO · Heavens-Above · Gunter

§ Orbital elements

Epoch: 2026-09-20T03:33:52.402752Z

Period
109.97 min
Inclination
87.8555°
Eccentricity
0.0002705
Mean motion
13.09457717 rev/d
Perigee alt
1,223.2 km
Apogee alt
1,227.3 km
Semi-major
7,603.4 km
B*
-6.8586e-4
RAAN
33.6561°
Arg perigee
103.1285°
Mean anomaly
257.0143°
Rev number
31,849

§ Raw data

ONEWEB-00131 45131U 20008A   26263.14852318 -.00000224  00000+0 -68586-3 0  99902 45131  87.8555  33.6561 0002705 103.1285 257.0143 13.09457717318493

JSON: /api/v1/satellites/45131 · /tle

For live sub-satellite position, see the globe view (requires WebGL).

§ Visibility from observer

Set your observer location to see the next 7 days of passes ≥ 10°. The values pass through the URL so the page stays shareable.

No JS? Fill the form by hand. The geolocation button needs JavaScript.